Weather History for YBCS - December, 2011

Change the Weather History Date:

Saturday, December 10, 2011

  Actual Average Record
Temperature  
Mean Temperature 83 °F -  
Max Temperature 89 °F 88 °F 91 °F (2005)
Min Temperature 77 °F 74 °F 68 °F (2013)
Cooling Degree Days 18    
Growing Degree Days 33 (Base 50)    
Moisture  
Dew Point 76 °F    
Average Humidity 77    
Maximum Humidity 94    
Minimum Humidity 54    
Precipitation  
Precipitation 0.00 in 0.34 in - ()
Sea Level Pressure  
Sea Level Pressure 29.76 in    
Wind  
Wind Speed 5 mph ()    
Max Wind Speed 10 mph    
Max Gust Speed -    
Visibility 7.8 miles    
Events      
Averages and records for this station are not official NWS values.
T = Trace of Precipitation, MM = Missing Value Source: Averaged Metar Reports

Daily Weather History Graph

Daily Weather History Graph

Search for Another Location

Airport or City:

Trip Planner

Search our weather history database for the weather conditions in past years. The results will help you decide how hot, cold, wet, or windy it might be!

Date:

Astronomy

Dec. 10, 2011 Rise Set
Actual Time 5:36 AM AEST 6:42 PM AEST
Civil Twilight 5:12 AM AEST 7:06 PM AEST
Nautical Twilight 4:44 AM AEST 7:34 PM AEST
Astronomical Twilight 4:15 AM AEST 8:04 PM AEST
Moon 6:26 PM AEST (12/10) 5:00 AM AEST (12/10)
Length of Visible Light 13h 54m
Length of Day
13h 06m
Full, 100% of the Moon is Illuminated
Dec 10
Full
Dec 11
Full
Dec 18
Last Quarter
Dec 25
New
Jan 1
First Quarter

Hourly Weather History & Observations

Time (AEST) Temp. Heat Index Dew Point Humidity Pressure Visibility Wind Dir Wind Speed Gust Speed Precip Events Conditions
12:00 AM 80 °F - 76 °F 83% 29.79 in 16 mi WNW 6.9 mph - -   Partly Cloudy
12:00 AM 80.6 °F 86.2 °F 75.2 °F 84% 29.77 in 6.2 mi WNW 6.9 mph - N/A   Mostly Cloudy
12:30 AM 78.8 °F - 77.0 °F 94% 29.77 in 6.2 mi West 5.8 mph - N/A   Mostly Cloudy
1:00 AM 80 °F - 76 °F 84% 29.78 in - West 5.8 mph - -  
1:00 AM 80.6 °F 86.2 °F 75.2 °F 84% 29.77 in 6.2 mi West 5.8 mph - N/A   Mostly Cloudy
1:30 AM 80.6 °F 86.2 °F 75.2 °F 84% 29.77 in 6.2 mi WNW 5.8 mph - N/A   Mostly Cloudy
2:00 AM 80.6 °F 86.2 °F 75.2 °F 84% 29.74 in 6.2 mi West 5.8 mph - N/A   Mostly Cloudy
2:30 AM 78.8 °F - 77.0 °F 94% 29.74 in 6.2 mi NNW 3.5 mph - N/A   Mostly Cloudy
3:00 AM 79 °F - 76 °F 88% 29.76 in 19 mi West 5.8 mph - -   Partly Cloudy
3:00 AM 78.8 °F - 77.0 °F 94% 29.74 in 6.2 mi West 5.8 mph - N/A   Mostly Cloudy
3:30 AM 78.8 °F - 77.0 °F 94% 29.74 in 6.2 mi North 5.8 mph - N/A   Mostly Cloudy
4:00 AM 79 °F - 76 °F 87% 29.77 in - WNW 3.5 mph - -  
4:00 AM 78.8 °F - 75.2 °F 89% 29.74 in 6.2 mi WNW 3.5 mph - N/A   Scattered Clouds
4:30 AM 78.8 °F - 77.0 °F 94% 29.74 in 6.2 mi West 4.6 mph - N/A   Scattered Clouds
5:00 AM 78.8 °F - 73.4 °F 83% 29.74 in 6.2 mi West 6.9 mph - N/A   Mostly Cloudy
5:30 AM 78.8 °F - 75.2 °F 89% 29.77 in 6.2 mi Calm Calm - N/A   Mostly Cloudy
6:00 AM 78 °F - 75 °F 89% 29.78 in 19 mi NNW 4.6 mph - -   Partly Cloudy
6:00 AM 78.8 °F - 75.2 °F 89% 29.77 in 6.2 mi NNW 4.6 mph - N/A   Mostly Cloudy
6:30 AM 80.6 °F 86.2 °F 75.2 °F 84% 29.77 in 6.2 mi West 4.6 mph - N/A   Mostly Cloudy
7:00 AM 83 °F - 75 °F 72% 29.80 in - Calm Calm - -  
7:00 AM 82.4 °F 89.5 °F 75.2 °F 79% 29.77 in 6.2 mi Calm Calm - N/A   Mostly Cloudy
7:30 AM 84.2 °F 94.1 °F 77.0 °F 79% 29.80 in 6.2 mi SE 5.8 mph - N/A   Scattered Clouds
8:00 AM 84.2 °F 94.1 °F 77.0 °F 79% 29.80 in 6.2 mi SSE 6.9 mph - N/A   Scattered Clouds
8:30 AM 86.0 °F 96.9 °F 77.0 °F 74% 29.83 in 6.2 mi ESE 5.8 mph - N/A   Partly Cloudy
9:00 AM 87 °F - 76 °F 63% 29.82 in 19 mi South 1.2 mph - -   Partly Cloudy
9:00 AM 87.8 °F 99.7 °F 77.0 °F 70% 29.80 in 6.2 mi South 1.2 mph - N/A   Partly Cloudy
9:30 AM 87.8 °F 97.6 °F 75.2 °F 66% 29.80 in 6.2 mi West 2.3 mph - N/A   Partly Cloudy
10:00 AM 89 °F - 76 °F 58% 29.83 in - NE 8.1 mph - -  
10:00 AM 89.6 °F 102.2 °F 77.0 °F 66% 29.80 in 6.2 mi NE 8.1 mph - N/A   Partly Cloudy
10:30 AM 87.8 °F 99.7 °F 77.0 °F 70% 29.83 in 6.2 mi NE 10.4 mph - N/A   Partly Cloudy
11:00 AM 87.8 °F 99.7 °F 77.0 °F 70% 29.83 in 6.2 mi NE 10.4 mph - N/A   Partly Cloudy
11:30 AM 89.6 °F 99.8 °F 75.2 °F 62% 29.80 in 6.2 mi NNE 9.2 mph - N/A   Partly Cloudy
12:00 PM 89 °F - 75 °F 54% 29.80 in 19 mi North 8.1 mph - -   Partly Cloudy
12:00 PM 89.6 °F 99.8 °F 75.2 °F 62% 29.80 in 6.2 mi North 8.1 mph - N/A   Partly Cloudy
12:30 PM 89.6 °F 99.8 °F 75.2 °F 62% 29.77 in 6.2 mi North 9.2 mph - N/A   Partly Cloudy
1:00 PM 88 °F - 76 °F 61% 29.78 in - NNE 10.4 mph - -  
1:00 PM 87.8 °F 99.7 °F 77.0 °F 70% 29.77 in 6.2 mi NNE 10.4 mph - N/A   Partly Cloudy
1:30 PM 87.8 °F 99.7 °F 77.0 °F 70% 29.74 in 6.2 mi NNE 9.2 mph - N/A   Partly Cloudy
2:00 PM 87.8 °F 99.7 °F 77.0 °F 70% 29.74 in 6.2 mi NNE 10.4 mph - N/A   Partly Cloudy
2:30 PM 86.0 °F 96.9 °F 77.0 °F 74% 29.74 in 6.2 mi North 8.1 mph - N/A   Partly Cloudy
3:00 PM 85 °F - 77 °F 71% 29.73 in 19 mi North 9.2 mph - -   Partly Cloudy
3:00 PM 86.0 °F 96.9 °F 77.0 °F 74% 29.71 in 6.2 mi North 9.2 mph - N/A   Partly Cloudy
3:30 PM 86.0 °F 96.9 °F 77.0 °F 74% 29.71 in 6.2 mi NNE 6.9 mph - N/A   Mostly Cloudy
4:00 PM 86 °F - 77 °F 69% 29.73 in - North 8.1 mph - -  
4:00 PM 86.0 °F 96.9 °F 77.0 °F 74% 29.71 in 6.2 mi North 8.1 mph - N/A   Mostly Cloudy
4:30 PM 86.0 °F 96.9 °F 77.0 °F 74% 29.71 in 6.2 mi North 9.2 mph - N/A   Mostly Cloudy
5:00 PM 86.0 °F 96.9 °F 77.0 °F 74% 29.68 in 6.2 mi NNE 6.9 mph - N/A   Mostly Cloudy
5:30 PM 86.0 °F 96.9 °F 77.0 °F 74% 29.68 in 6.2 mi NNE 6.9 mph - N/A   Mostly Cloudy
6:00 PM 85 °F - 77 °F 70% 29.71 in - North 8.1 mph - -  
6:00 PM 84.2 °F 94.1 °F 77.0 °F 79% 29.71 in 6.2 mi North 8.1 mph - N/A   Mostly Cloudy
6:30 PM 84.2 °F 94.1 °F 77.0 °F 79% 29.71 in 6.2 mi North 8.1 mph - N/A   Mostly Cloudy
7:00 PM 83 °F - 76 °F 75% 29.71 in - NW 5.8 mph - -  
7:00 PM 84.2 °F 94.1 °F 77.0 °F 79% 29.71 in 6.2 mi NW 5.8 mph - N/A   Mostly Cloudy
7:30 PM 84.2 °F 94.1 °F 77.0 °F 79% 29.71 in 6.2 mi NW 4.6 mph - N/A   Mostly Cloudy
8:00 PM 82.4 °F 90.9 °F 77.0 °F 84% 29.74 in 6.2 mi NW 2.3 mph - N/A   Mostly Cloudy
8:30 PM 84.2 °F 94.1 °F 77.0 °F 79% 29.77 in 6.2 mi WNW 3.5 mph - N/A   Mostly Cloudy
9:00 PM 83 °F - 76 °F 75% 29.78 in 19 mi WNW 2.3 mph - -   Partly Cloudy
9:00 PM 84.2 °F 94.1 °F 77.0 °F 79% 29.77 in 6.2 mi WNW 2.3 mph - N/A   Scattered Clouds
9:30 PM 82.4 °F 90.9 °F 77.0 °F 84% 29.77 in 6.2 mi NW 3.5 mph - N/A   Mostly Cloudy
10:00 PM 83 °F - 76 °F 75% 29.79 in - West 2.3 mph - -  
10:00 PM 84.2 °F 94.1 °F 77.0 °F 79% 29.77 in 6.2 mi West 2.3 mph - N/A   Mostly Cloudy
10:30 PM 82.4 °F 90.9 °F 77.0 °F 84% 29.77 in 6.2 mi WNW 5.8 mph - N/A   Mostly Cloudy
11:00 PM 84.2 °F 94.1 °F 77.0 °F 79% 29.80 in 6.2 mi West 3.5 mph - N/A   Mostly Cloudy
11:30 PM 84.2 °F 94.1 °F 77.0 °F 79% 29.77 in 6.2 mi WNW 4.6 mph - N/A   Mostly Cloudy